NOAA 16 DEB

Satellite information

Favourite Embed

Satellite Type and Status

DEBRISIN ORBIT

Key statistics

Satellite NOAA 16 DEB at a glance.

Uptime

9115

Days in orbit

Revolutions

≈ 14.6

Per day

Orbit

SSO

Sun Synchronous Orbit

Inclination

98.8

Latest

Satellite identification and parameters

Extended collection of information and parameters for NOAA 16 DEB.

Object identification

Identified? True

Debris? True

Object name: NOAA 16 DEB

International designator: 2000-055QZ

Object number (NORAD): 42357

Object ID (CCSDS): 42357

Country: UNITED STATES OF AMERICA (US)

Current information (Y/N): Y

RCS size: SMALL

Orbital parameters

Period: 98.616 minutes

Inclination: 98.8102 deg

SMA: 7070.627 km

Apoapsis: 700.575 km

Periapsis: 684.409 km

RAAN: 7.0239 deg

Eccentricy: 0.00114319

Argument of periapsis: 211.2521 deg

Mean anomaly: 148.7999 deg

Mean motion: 14.60211984 rev/day

Mean motion (dot): 0.00033917 rev/day2

B* drag term: 0.0070052514 1/REarth

Two-line elements (TLE)

Creation date: Sept. 4, 2025, 10:13 a.m.

Reference frame: TEME

Reference center: EARTH

Epoch: Sept. 4, 2025, 6:36 a.m. UTC

TLE line 0: 0 NOAA 16 DEB

TLE line 1: 1 42357U 00055QZ 25247.27559544 .00033917 00000-0 70053-2 0 9992

TLE line 2: 2 42357 98.8102 7.0239 0011432 211.2521 148.7999 14.60211984495660

Live tracking on map

Real-time ground track for satellite NOAA 16 DEB.

In-orbit conjunctions

A list of the most updated potential collisions computed for object NOAA 16 DEB.

Target Orbit TCA Probability of collision Miss distance Type
COSMOS 2251 DEB LEO 2024-11-15 11:55:28 0.0003868582 734.0 (m) DEBRIS
COSMOS 1275 DEB LEO 2024-11-13 11:30:22 0.000277312 177.0 (m) DEBRIS
COSMOS 676 LEO 2024-09-18 02:37:46 0.00016167 154.0 (m) PAYLOAD
INTERCOSMOS 25 HEO 2024-08-08 14:01:29 0.000278006 75.0 (m) PAYLOAD

Associated space launch

The NOAA K, L and M POES satellites begin the fifth generation of improved environmental monitoring in support of NOAA missions. The instrument payload has significant improvements and additions/deletions. The instrument changes have effected the spacecraft subsystems and data formats.

NOAA 16 DEB was lifted into orbit during the mission ‘Titan II SLV | NOAA 16’, on board a Titan II SLV space rocket.

The launch took place on Sept. 21, 2000, 10:22 a.m. from Space Launch Complex 4W.

For more information about the launch, click the button.

Launch to space Titan II SLV | NOAA 16
Titan II SLV | NOAA 16

Agency: N/A

Status: Launch Successful

Launch date: Sept. 21, 2000, 10:22 a.m. UTC

Rocket: Titan II SLV

Launch pad: Space Launch Complex 4W

Location: Vandenberg SFB, CA, USA

...

Latest news about this satellite

There are no fresh news available about this satellite. Check back as we update our databases every day.


Newsletter sign-up

Weekly statistics, charts and insights to help you stay on top of the space industry.